Location: Newark
(45.2862°N, 9.8850°E)
Time: 08:27:20
(UTC+00:00)

N. Korean satellite - Pass Details

Date: 08 December 2019
Orbit: 454 x 507 km, 97.2° (Epoch: 27 January)

Event Time Altitude Azimuth Distance (km) Brightness Sun altitude
Rises 05:51:04 0° 3° (N) 2,564 10.0 -9.5°
Reaches altitude 10° 05:53:17 10° 354° (N) 1,669 9.0 -9.1°
Maximum altitude 05:56:30 33° 290° (WNW) 831 7.2 -8.6°
Drops below altitude 10° 05:59:40 10° 225° (SW) 1,629 9.0 -8.1°
Sets 06:01:49 0° 215° (SW) 2,491 10.1 -7.7°
